Location: Shell Point
(30.0571°N, 84.2896°W)
Time: 06:24:46
(UTC-04:00)

Meteor 2-19 Rocket - Visible Passes

Search period start: 28 May 2017 00:00
Search period end: 07 June 2017 00:00
Orbit: 936 x 959 km, 82.5° (Epoch: 27 May)

Date Brightness Start Highest point End Pass type
(mag) Time Alt. Az. Time Alt. Az. Time Alt. Az.
28 May 4.5 22:18:17 10° N 22:24:22 63° E 22:26:33 40° SSE visible
29 May 6.8 00:05:42 10° WNW 00:08:29 13° W 00:10:39 11° WSW visible
29 May 6.3 20:54:41 10° ENE 20:55:57 11° ENE 20:57:13 10° E visible
29 May 4.5 22:35:12 10° N 22:41:21 79° W 22:43:54 38° S visible
30 May 5.9 21:09:02 10° NNE 21:13:16 19° ENE 21:17:09 11° ESE visible
30 May 5.2 22:52:24 10° NNW 22:58:14 47° W 23:01:15 27° SSW visible
31 May 5.3 21:25:03 10° NNE 21:30:27 32° ENE 21:34:33 16° SE visible
31 May 6.1 23:09:58 10° NNW 23:15:04 28° W 23:18:39 17° SW visible
01 Jun 4.7 21:41:34 10° N 21:47:33 53° E 21:51:58 18° SSE visible
01 Jun 6.8 23:28:09 10° NW 23:31:48 17° W 23:35:28 10° WSW visible
02 Jun 4.4 21:58:23 10° N 22:04:34 87° E 22:09:25 17° S visible
03 Jun 5.0 22:15:30 10° NNW 22:21:30 57° W 22:26:55 13° SSW visible
04 Jun 5.9 22:32:55 10° NNW 22:38:20 34° W 22:43:46 10° SSW visible
05 Jun 4.9 21:04:53 10° N 21:10:44 44° E 21:16:33 10° SSE visible
05 Jun 6.7 22:50:49 10° NW 22:55:07 20° W 22:59:24 10° SW visible
06 Jun 4.4 21:21:37 10° N 21:27:47 74° E 21:33:54 10° SSE visible
06 Jun 7.1 23:10:09 10° WNW 23:11:47 11° W 23:13:26 10° W visible
